| time (UTC) | temp F | wind direction | speed MPH | gust MPH | rain 1hr in | rain 24hr in | rain mn in | humidity % | barometer mb |
| 20260831101004 | 75 | 0 | 0.0 | 0.0 | 0.00 | 0.94 | 0.03 | 94 | 1016.0 |
| 20260831100004 | 75 | 0 | 0.0 | 0.0 | 0.00 | 0.94 | 0.03 | 93 | 1015.8 |
| 20260831095004 | 76 | 0 | 0.0 | 0.0 | 0.00 | 0.94 | 0.03 | 93 | 1015.9 |
| 20260831094004 | 76 | 0 | 0.0 | 0.0 | 0.00 | 0.94 | 0.03 | 93 | 1015.8 |
| 20260831093004 | 76 | 0 | 0.0 | 0.0 | 0.00 | 0.94 | 0.03 | 94 | 1015.9 |
| 20260831092004 | 76 | 0 | 0.0 | 0.0 | 0.00 | 0.94 | 0.03 | 94 | 1015.9 |
| 20260831091025 | 75 | 0 | 0.0 | 0.0 | 0.00 | 0.94 | 0.03 | 94 | 1015.9 |
| 20260831090004 | 75 | 0 | 0.0 | 0.0 | 0.00 | 0.94 | 0.03 | 94 | 1016.1 |
| 20260831085025 | 75 | 0 | 0.0 | 0.0 | 0.00 | 0.94 | 0.03 | 94 | 1015.9 |
| 20260831084025 | 75 | 0 | 0.0 | 0.0 | 0.00 | 0.94 | 0.03 | 94 | 1016.0 |
| 20260831083025 | 75 | 0 | 0.0 | 0.0 | 0.00 | 0.94 | 0.03 | 93 | 1016.2 |
| 20260831082004 | 75 | 0 | 0.0 | 0.0 | 0.00 | 0.94 | 0.03 | 93 | 1016.2 |
| 20260831081004 | 75 | 0 | 0.0 | 0.0 | 0.00 | 0.94 | 0.03 | 93 | 1016.2 |
| 20260831080025 | 76 | 0 | 0.0 | 0.0 | 0.00 | 0.94 | 0.03 | 93 | 1016.2 |
| 20260831075004 | 76 | 0 | 0.0 | 0.0 | 0.00 | 0.94 | 0.03 | 93 | 1016.3 |
| 20260831074004 | 76 | 0 | 0.0 | 0.0 | 0.00 | 0.94 | 0.03 | 93 | 1016.2 |
| 20260831073004 | 76 | 0 | 0.0 | 0.0 | 0.00 | 0.94 | 0.03 | 93 | 1016.3 |
| 20260831072004 | 76 | 0 | 0.0 | 0.0 | 0.00 | 0.94 | 0.03 | 93 | 1016.5 |
| 20260831071004 | 76 | 0 | 0.0 | 0.0 | 0.00 | 0.94 | 0.03 | 93 | 1016.4 |
| 20260831070004 | 76 | 0 | 0.0 | 0.0 | 0.01 | 0.94 | 0.03 | 93 | 1016.7 |
| 20260831065004 | 76 | 0 | 0.0 | 0.0 | 0.01 | 0.94 | 0.03 | 93 | 1016.6 |
| 20260831064004 | 77 | 0 | 0.0 | 0.0 | 0.01 | 0.94 | 0.03 | 93 | 1016.5 |
| 20260831063025 | 77 | 0 | 0.0 | 0.0 | 0.01 | 0.94 | 0.03 | 93 | 1016.7 |
| 20260831062004 | 77 | 0 | 0.0 | 0.0 | 0.01 | 0.94 | 0.03 | 93 | 1016.9 |
| 20260831061004 | 77 | 0 | 0.0 | 0.0 | 0.01 | 0.94 | 0.03 | 94 | 1016.9 |
| 20260831060004 | 77 | 0 | 0.0 | 0.0 | 0.00 | 0.93 | 0.02 | 94 | 1016.9 |
| 20260831055004 | 76 | 0 | 0.0 | 0.0 | 0.00 | 0.93 | 0.02 | 94 | 1016.8 |
| 20260831054004 | 76 | 0 | 0.0 | 0.0 | 0.00 | 0.94 | 0.02 | 94 | 1016.9 |
| 20260831053004 | 76 | 0 | 0.0 | 0.0 | 0.00 | 0.94 | 0.02 | 94 | 1017.2 |
| 20260831052025 | 76 | 0 | 0.0 | 0.0 | 0.00 | 0.94 | 0.02 | 94 | 1017.3 |
| 20260831051004 | 76 | 0 | 0.0 | 0.0 | 0.01 | 0.94 | 0.02 | 94 | 1017.2 |
| 20260831050004 | 76 | 0 | 0.0 | 0.0 | 0.02 | 0.94 | 0.02 | 94 | 1017.1 |
| 20260831045025 | 75 | 0 | 0.0 | 0.0 | 0.19 | 0.94 | 0.02 | 93 | 1017.4 |
| 20260831044003 | 75 | 0 | 0.0 | 0.0 | 0.25 | 0.94 | 0.02 | 93 | 1017.5 |
| 20260831043004 | 75 | 0 | 0.0 | 0.0 | 0.49 | 0.94 | 0.02 | 93 | 1017.7 |
| 20260831042004 | 75 | 0 | 0.0 | 0.0 | 0.55 | 0.94 | 0.02 | 93 | 1017.7 |
| 20260831041004 | 75 | 0 | 0.0 | 0.0 | 0.56 | 0.93 | 0.01 | 93 | 1017.8 |
| 20260831040004 | 75 | 0 | 0.0 | 0.0 | 0.55 | 0.92 | 0.00 | 93 | 1017.7 |
| 20260831035004 | 75 | 0 | 0.0 | 0.0 | 0.38 | 0.75 | 0.75 | 92 | 1017.9 |
| 20260831034004 | 75 | 0 | 0.0 | 0.0 | 0.32 | 0.69 | 0.69 | 92 | 1017.7 |
| 20260831033004 | 76 | 0 | 0.0 | 0.0 | 0.08 | 0.45 | 0.45 | 92 | 1018.1 |
| 20260831032004 | 76 | 0 | 0.0 | 0.0 | 0.03 | 0.39 | 0.39 | 91 | 1018.1 |
| 20260831031025 | 77 | 0 | 0.0 | 0.0 | 0.01 | 0.37 | 0.37 | 91 | 1018.1 |
| 20260831030004 | 77 | 0 | 0.0 | 0.0 | 0.01 | 0.37 | 0.37 | 92 | 1017.5 |
| 20260831025004 | 77 | 0 | 0.0 | 0.0 | 0.16 | 0.37 | 0.37 | 92 | 1017.7 |
| 20260831024004 | 77 | 0 | 0.0 | 0.0 | 0.36 | 0.37 | 0.37 | 91 | 1017.7 |
| 20260831023004 | 77 | 0 | 0.0 | 0.0 | 0.36 | 0.37 | 0.37 | 91 | 1017.6 |
| 20260831022003 | 77 | 0 | 0.0 | 0.0 | 0.35 | 0.36 | 0.36 | 91 | 1017.6 |
| 20260831021004 | 77 | 0 | 0.0 | 0.0 | 0.35 | 0.36 | 0.36 | 90 | 1017.6 |
| 20260831020004 | 78 | 0 | 0.0 | 0.0 | 0.35 | 0.36 | 0.36 | 89 | 1017.8 |
| 20260831015004 | 78 | 50 | 0.0 | 1.0 | 0.20 | 0.21 | 0.21 | 88 | 1017.8 |
| 20260831014004 | 79 | 0 | 0.0 | 0.0 | 0.00 | 0.01 | 0.01 | 87 | 1017.7 |
| 20260831013004 | 78 | 0 | 0.0 | 0.0 | 0.00 | 0.01 | 0.01 | 86 | 1017.7 |
| 20260831012003 | 78 | 0 | 0.0 | 0.0 | 0.00 | 0.01 | 0.01 | 86 | 1017.6 |
| 20260831011004 | 78 | 0 | 0.0 | 0.0 | 0.00 | 0.01 | 0.01 | 86 | 1017.7 |
| 20260831010004 | 78 | 0 | 0.0 | 0.0 | 0.00 | 0.01 | 0.01 | 86 | 1017.6 |
| 20260831005004 | 79 | 0 | 0.0 | 0.0 | 0.00 | 0.01 | 0.01 | 86 | 1017.6 |
| 20260831004025 | 79 | 0 | 0.0 | 0.0 | 0.00 | 0.01 | 0.01 | 86 | 1017.4 |
| 20260831003004 | 79 | 0 | 0.0 | 0.0 | 0.00 | 0.01 | 0.01 | 85 | 1017.3 |
| 20260831002024 | 79 | 0 | 0.0 | 0.0 | 0.00 | 0.01 | 0.01 | 84 | 1017.2 |
| 20260831001004 | 80 | 0 | 0.0 | 0.0 | 0.00 | 0.01 | 0.01 | 84 | 1017.1 |
| 20260831000004 | 80 | 0 | 0.0 | 0.0 | 0.00 | 0.01 | 0.01 | 83 | 1016.8 |
| 20260830235004 | 81 | 0 | 0.0 | 0.0 | 0.00 | 0.01 | 0.01 | 82 | 1016.9 |
| 20260830234003 | 81 | 0 | 0.0 | 0.0 | 0.00 | 0.02 | 0.01 | 82 | 1016.8 |
| 20260830233004 | 81 | 0 | 0.0 | 0.0 | 0.00 | 0.02 | 0.01 | 81 | 1016.7 |
| 20260830232003 | 82 | 0 | 0.0 | 0.0 | 0.00 | 0.02 | 0.01 | 81 | 1016.4 |
| 20260830231004 | 82 | 0 | 0.0 | 0.0 | 0.00 | 0.02 | 0.01 | 81 | 1016.2 |
| 20260830230004 | 82 | 0 | 0.0 | 0.0 | 0.00 | 0.02 | 0.01 | 80 | 1016.2 |
| 20260830225025 | 82 | 0 | 0.0 | 0.0 | 0.00 | 0.03 | 0.01 | 81 | 1016.4 |
| 20260830224004 | 82 | 0 | 0.0 | 0.0 | 0.00 | 0.03 | 0.01 | 81 | 1016.4 |
| 20260830223004 | 82 | 0 | 0.0 | 0.0 | 0.00 | 0.04 | 0.01 | 81 | 1016.5 |
| 20260830222004 | 82 | 0 | 0.0 | 0.0 | 0.00 | 0.05 | 0.01 | 81 | 1016.4 |
| 20260830221024 | 81 | 0 | 0.0 | 0.0 | 0.00 | 0.05 | 0.01 | 81 | 1016.5 |
| 20260830220004 | 81 | 0 | 0.0 | 0.0 | 0.00 | 0.06 | 0.01 | 82 | 1016.4 |
| 20260830215003 | 81 | 0 | 0.0 | 0.0 | 0.00 | 0.07 | 0.01 | 82 | 1016.7 |
| 20260830214003 | 81 | 0 | 0.0 | 0.0 | 0.00 | 0.09 | 0.01 | 82 | 1016.5 |
| 20260830213003 | 81 | 0 | 0.0 | 0.0 | 0.00 | 0.10 | 0.01 | 81 | 1016.8 |
| 20260830212003 | 81 | 0 | 0.0 | 0.0 | 0.00 | 0.11 | 0.01 | 82 | 1017.0 |
| 20260830211003 | 80 | 0 | 0.0 | 0.0 | 0.00 | 0.13 | 0.01 | 81 | 1016.9 |
| 20260830210004 | 80 | 0 | 0.0 | 0.0 | 0.00 | 0.15 | 0.01 | 83 | 1017.0 |
| 20260830205003 | 80 | 0 | 0.0 | 0.0 | 0.00 | 0.17 | 0.01 | 85 | 1017.0 |
| 20260830204004 | 80 | 0 | 0.0 | 0.0 | 0.00 | 0.18 | 0.01 | 85 | 1016.9 |
| 20260830203004 | 79 | 0 | 0.0 | 0.0 | 0.00 | 0.18 | 0.01 | 86 | 1016.9 |
| 20260830202003 | 79 | 0 | 0.0 | 0.0 | 0.00 | 0.18 | 0.01 | 86 | 1016.8 |
| 20260830201003 | 79 | 0 | 0.0 | 0.0 | 0.00 | 0.18 | 0.01 | 86 | 1016.9 |
| 20260830200003 | 80 | 0 | 0.0 | 0.0 | 0.00 | 0.19 | 0.01 | 86 | 1016.9 |
| 20260830195003 | 80 | 0 | 0.0 | 0.0 | 0.00 | 0.19 | 0.01 | 86 | 1016.9 |
| 20260830194003 | 81 | 0 | 0.0 | 0.0 | 0.00 | 0.19 | 0.01 | 85 | 1017.1 |
| 20260830193025 | 82 | 0 | 0.0 | 0.0 | 0.00 | 0.19 | 0.01 | 85 | 1017.2 |
| 20260830192003 | 82 | 0 | 0.0 | 0.0 | 0.00 | 0.19 | 0.01 | 82 | 1017.4 |
| 20260830191004 | 82 | 0 | 0.0 | 0.0 | 0.00 | 0.19 | 0.01 | 82 | 1017.1 |
| 20260830190003 | 83 | 0 | 0.0 | 0.0 | 0.00 | 0.19 | 0.01 | 80 | 1017.3 |
| 20260830185003 | 83 | 0 | 0.0 | 0.0 | 0.00 | 0.19 | 0.01 | 79 | 1017.5 |
| 20260830184003 | 83 | 0 | 0.0 | 0.0 | 0.00 | 0.19 | 0.01 | 78 | 1017.5 |
| 20260830183024 | 84 | 75 | 0.0 | 1.0 | 0.00 | 0.19 | 0.01 | 79 | 1017.6 |
| 20260830182003 | 85 | 57 | 4.0 | 15.0 | 0.00 | 0.19 | 0.01 | 78 | 1017.8 |
| 20260830181024 | 89 | 59 | 0.0 | 1.0 | 0.00 | 0.19 | 0.01 | 76 | 1017.4 |
| 20260830180003 | 89 | 0 | 0.0 | 0.0 | 0.00 | 0.19 | 0.01 | 69 | 1017.2 |
| 20260830175003 | 88 | 0 | 0.0 | 0.0 | 0.00 | 0.19 | 0.01 | 70 | 1017.4 |
| 20260830174003 | 88 | 0 | 0.0 | 0.0 | 0.00 | 0.19 | 0.01 | 73 | 1017.6 |
| 20260830173003 | 87 | 250 | 0.0 | 1.0 | 0.00 | 0.19 | 0.01 | 74 | 1017.7 |
| 20260830172003 | 87 | 45 | 0.0 | 1.0 | 0.00 | 0.19 | 0.01 | 77 | 1017.8 |
| 20260830171003 | 86 | 48 | 3.0 | 7.0 | 0.00 | 0.19 | 0.01 | 76 | 1018.0 |
| 20260830170003 | 86 | 49 | 5.0 | 15.0 | 0.00 | 0.19 | 0.01 | 74 | 1017.9 |
| 20260830165003 | 88 | 0 | 0.0 | 0.0 | 0.00 | 0.19 | 0.01 | 76 | 1018.0 |
| 20260830164024 | 89 | 0 | 0.0 | 0.0 | 0.00 | 0.19 | 0.01 | 74 | 1018.3 |
| 20260830163003 | 88 | 0 | 0.0 | 0.0 | 0.00 | 0.19 | 0.01 | 76 | 1018.2 |
| 20260830162003 | 88 | 0 | 0.0 | 0.0 | 0.00 | 0.19 | 0.01 | 74 | 1018.3 |
| 20260830161004 | 87 | 0 | 0.0 | 0.0 | 0.00 | 0.19 | 0.01 | 76 | 1018.1 |
| 20260830160003 | 86 | 0 | 0.0 | 0.0 | 0.00 | 0.19 | 0.01 | 75 | 1018.2 |
| 20260830155003 | 86 | 0 | 0.0 | 0.0 | 0.00 | 0.19 | 0.01 | 76 | 1018.4 |
| 20260830154003 | 86 | 0 | 0.0 | 0.0 | 0.00 | 0.19 | 0.01 | 77 | 1018.4 |
| 20260830153003 | 86 | 0 | 0.0 | 0.0 | 0.00 | 0.19 | 0.01 | 76 | 1018.5 |
| 20260830152003 | 87 | 0 | 0.0 | 0.0 | 0.00 | 0.19 | 0.01 | 79 | 1018.7 |
| 20260830151003 | 87 | 0 | 0.0 | 0.0 | 0.00 | 0.19 | 0.01 | 77 | 1018.6 |
| 20260830150024 | 87 | 0 | 0.0 | 0.0 | 0.00 | 0.19 | 0.01 | 78 | 1018.7 |
| 20260830145025 | 86 | 0 | 0.0 | 0.0 | 0.00 | 0.19 | 0.01 | 81 | 1018.7 |
| 20260830144003 | 86 | 0 | 0.0 | 0.0 | 0.00 | 0.19 | 0.01 | 79 | 1018.8 |
| 20260830143003 | 85 | 0 | 0.0 | 0.0 | 0.00 | 0.19 | 0.01 | 83 | 1018.8 |
| 20260830142003 | 84 | 0 | 0.0 | 0.0 | 0.00 | 0.19 | 0.01 | 84 | 1018.8 |
| 20260830141003 | 84 | 0 | 0.0 | 0.0 | 0.00 | 0.19 | 0.01 | 84 | 1018.7 |
| 20260830140003 | 83 | 0 | 0.0 | 0.0 | 0.00 | 0.19 | 0.01 | 85 | 1018.7 |
| 20260830135003 | 82 | 0 | 0.0 | 0.0 | 0.00 | 0.19 | 0.01 | 86 | 1018.6 |
| 20260830134003 | 82 | 0 | 0.0 | 0.0 | 0.00 | 0.19 | 0.01 | 86 | 1018.5 |
| 20260830133024 | 81 | 0 | 0.0 | 0.0 | 0.00 | 0.19 | 0.01 | 87 | 1018.7 |
| 20260830132003 | 81 | 0 | 0.0 | 0.0 | 0.00 | 0.19 | 0.01 | 87 | 1018.6 |
| 20260830131003 | 81 | 0 | 0.0 | 0.0 | 0.00 | 0.19 | 0.01 | 89 | 1018.3 |
| 20260830130003 | 80 | 0 | 0.0 | 0.0 | 0.00 | 0.19 | 0.01 | 90 | 1018.2 |
| 20260830125003 | 79 | 0 | 0.0 | 0.0 | 0.00 | 0.19 | 0.01 | 91 | 1018.3 |
| 20260830124003 | 79 | 50 | 0.0 | 1.0 | 0.00 | 0.19 | 0.01 | 92 | 1018.2 |
| 20260830123003 | 78 | 0 | 0.0 | 0.0 | 0.00 | 0.19 | 0.01 | 92 | 1018.2 |
| 20260830122003 | 77 | 0 | 0.0 | 0.0 | 0.00 | 0.19 | 0.01 | 93 | 1018.2 |
| 20260830121025 | 77 | 0 | 0.0 | 0.0 | 0.00 | 0.19 | 0.01 | 93 | 1018.1 |
| 20260830120003 | 77 | 0 | 0.0 | 0.0 | 0.00 | 0.19 | 0.01 | 93 | 1017.9 |
| 20260830115003 | 77 | 0 | 0.0 | 0.0 | 0.00 | 0.19 | 0.01 | 93 | 1017.7 |
| 20260830114003 | 76 | 0 | 0.0 | 0.0 | 0.00 | 0.19 | 0.01 | 93 | 1017.5 |
| 20260830113003 | 76 | 0 | 0.0 | 0.0 | 0.00 | 0.19 | 0.01 | 93 | 1017.5 |
| 20260830112024 | 76 | 0 | 0.0 | 0.0 | 0.00 | 0.19 | 0.01 | 93 | 1017.5 |
| 20260830111003 | 76 | 0 | 0.0 | 0.0 | 0.00 | 0.19 | 0.01 | 93 | 1017.4 |
| 20260830110004 | 76 | 0 | 0.0 | 0.0 | 0.00 | 0.19 | 0.01 | 93 | 1017.3 |
| 20260830105003 | 75 | 0 | 0.0 | 0.0 | 0.00 | 0.19 | 0.01 | 92 | 1017.2 |
| 20260830104003 | 75 | 0 | 0.0 | 0.0 | 0.00 | 0.19 | 0.01 | 92 | 1017.0 |
| 20260830103024 | 75 | 0 | 0.0 | 0.0 | 0.00 | 0.19 | 0.01 | 92 | 1016.9 |
| 20260830102003 | 75 | 0 | 0.0 | 0.0 | 0.00 | 0.19 | 0.01 | 92 | 1016.8 |